Lake Clear, NY

11:48 PM EST on February 08, 2016 (GMT -0500)
Adirondack Regional

Weather History for KSLK - February, 2012

Change the Weather History Date:

Thursday, February 9, 2012

  Actual Average Record
Temperature  
Mean Temperature 26 °F 14 °F  
Max Temperature 35 °F 27 °F 49 °F (1990)
Min Temperature 17 °F 1 °F -25 °F (1959)
Degree Days  
Heating Degree Days 39 51  
Month to date heating degree days 411 465  
Since 1 July heating degree days 4906 5767  
Cooling Degree Days 0 0  
Month to date cooling degree days 0  
Year to date cooling degree days 0  
Moisture  
Dew Point 16 °F    
Average Humidity 66    
Maximum Humidity 92    
Minimum Humidity 40    
Precipitation  
Precipitation 0.00 in 0.07 in 0.50 in (1958)
Month to date precipitation 0.17 0.54  
Year to date precipitation 2.50 2.67  
Sea Level Pressure  
Sea Level Pressure 30.00 in    
Wind  
Wind Speed 8 mph (SW)    
Max Wind Speed 18 mph    
Max Gust Speed 23 mph    
Visibility 10 miles    
Events      
T = Trace of Precipitation, MM = Missing Value Source: NWS Daily Summary

Daily Weather History Graph

Daily Weather History Graph

Search for Another Location

Airport or City:

Trip Planner

Search our weather history database for the weather conditions in past years. The results will help you decide how hot, cold, wet, or windy it might be!

Date:

Astronomy

Feb. 09, 2012 Rise Set
Actual Time 7:05 AM EST 5:16 PM EST
Civil Twilight 6:35 AM EST 5:47 PM EST
Nautical Twilight 6:01 AM EST 6:21 PM EST
Astronomical Twilight 5:27 AM EST 6:55 PM EST
Moon 7:50 PM EST 7:33 AM EST
Length of Visible Light 11h 11m
Length of Day
10h 10m
Waning Gibbous, 96% of the Moon is Illuminated
Feb 9
Waning Gibbous
Feb 14
Last Quarter
Feb 21
New
Feb 29
First Quarter
Mar 8
Full

Hourly Weather History & Observations

Time (EST) Temp. Windchill Dew Point Humidity Pressure Visibility Wind Dir Wind Speed Gust Speed Precip Events Conditions
12:08 AM 17.6 °F 8.2 °F 10.4 °F 73% 29.97 in 10.0 mi SSW 6.9 mph - N/A   Mostly Cloudy
12:51 AM 19.0 °F 12.3 °F 12.9 °F 77% 30.04 in 10.0 mi SSW 4.6 mph - N/A   Overcast
1:51 AM 21.0 °F 14.6 °F 15.1 °F 78% 30.04 in 10.0 mi SW 4.6 mph - N/A   Overcast
2:51 AM 21.9 °F 13.4 °F 16.0 °F 78% 30.01 in 10.0 mi SW 6.9 mph - N/A   Overcast
3:51 AM 21.9 °F 14.5 °F 17.1 °F 82% 30.00 in 10.0 mi SW 5.8 mph - N/A   Overcast
4:41 AM 21.2 °F 12.6 °F 17.6 °F 86% 29.93 in 10.0 mi SW 6.9 mph - N/A   Scattered Clouds
4:51 AM 19.4 °F 10.4 °F 17.6 °F 93% 29.93 in 10.0 mi SW 6.9 mph - N/A   Partly Cloudy
5:51 AM 19.0 °F 13.9 °F 16.0 °F 88% 30.01 in 9.0 mi SSW 3.5 mph - N/A   Scattered Clouds
6:05 AM 17.6 °F 12.3 °F 15.8 °F 93% 29.94 in 9.0 mi South 3.5 mph - N/A   Mostly Cloudy
6:51 AM 18.0 °F 12.7 °F 15.1 °F 88% 30.03 in 9.0 mi South 3.5 mph - N/A   Mostly Cloudy
7:13 AM 17.6 °F - 15.8 °F 93% 29.95 in 9.0 mi Calm Calm - N/A   Overcast
7:51 AM 19.9 °F 14.9 °F 16.0 °F 85% 30.05 in 10.0 mi WSW 3.5 mph - N/A   Overcast
8:12 AM 19.4 °F 12.8 °F 17.6 °F 93% 29.96 in 10.0 mi SSW 4.6 mph - N/A   Overcast
8:51 AM 21.9 °F 14.5 °F 19.0 °F 89% 30.05 in 10.0 mi SW 5.8 mph - N/A   Overcast
9:25 AM 24.8 °F 14.6 °F 19.4 °F 80% 29.97 in 10.0 mi WSW 10.4 mph 16.1 mph N/A   Overcast
9:51 AM 25.0 °F 14.8 °F 19.0 °F 78% 30.04 in 10.0 mi WSW 10.4 mph 18.4 mph N/A   Mostly Cloudy
9:59 AM 26.6 °F 17.5 °F 19.4 °F 74% 29.97 in 10.0 mi SW 9.2 mph 17.3 mph N/A   Mostly Cloudy
10:22 AM 28.4 °F 19.1 °F 19.4 °F 69% 29.97 in 10.0 mi WSW 10.4 mph 17.3 mph N/A   Scattered Clouds
10:51 AM 28.9 °F 21.1 °F 19.0 °F 67% 30.04 in 10.0 mi WSW 8.1 mph 18.4 mph N/A   Partly Cloudy
11:51 AM 30.9 °F 19.8 °F 16.0 °F 54% 30.03 in 10.0 mi SW 16.1 mph 21.9 mph N/A   Clear
12:51 PM 33.1 °F 23.4 °F 17.1 °F 52% 30.00 in 10.0 mi SW 13.8 mph 20.7 mph N/A   Clear
1:51 PM 34.0 °F 26.0 °F 15.1 °F 46% 29.98 in 10.0 mi WSW 10.4 mph 21.9 mph N/A   Clear
2:51 PM 35.1 °F 26.4 °F 14.0 °F 42% 29.98 in 10.0 mi WSW 12.7 mph 19.6 mph N/A   Clear
3:51 PM 34.0 °F 27.2 °F 12.9 °F 42% 29.98 in 10.0 mi WSW 8.1 mph - N/A   Clear
4:51 PM 32.0 °F 24.8 °F 12.9 °F 45% 29.99 in 10.0 mi SW 8.1 mph - N/A   Clear
5:51 PM 30.0 °F 21.7 °F 14.0 °F 51% 30.01 in 10.0 mi SW 9.2 mph - N/A   Clear
6:51 PM 28.0 °F 19.3 °F 12.9 °F 53% 30.02 in 10.0 mi SW 9.2 mph - N/A   Clear
7:51 PM 26.1 °F 16.2 °F 12.9 °F 58% 30.03 in 10.0 mi SW 10.4 mph - N/A   Clear
8:51 PM 25.0 °F 15.5 °F 12.9 °F 60% 30.04 in 10.0 mi SW 9.2 mph - N/A   Clear
9:51 PM 23.0 °F 14.7 °F 12.9 °F 65% 30.05 in 10.0 mi SW 6.9 mph - N/A   Clear
10:51 PM 24.1 °F 13.7 °F 14.0 °F 65% 30.04 in 10.0 mi SW 10.4 mph - N/A   Clear
11:51 PM 23.0 °F 14.7 °F 16.0 °F 74% 30.04 in 10.0 mi SW 6.9 mph - N/A   Clear